Time,TemperatureF,DewpointF,PressureIn,WindDirection,WindDirectionDegrees,WindSpeedMPH,WindSpeedGustMPH,Humidity,HourlyPrecipIn,Conditions,Clouds,dailyrainin,SolarRadiationWatts/m^2,SoftwareType,DateUTC
2013-01-13 00:00:00,38.3,38.0,30.10,SW,217,0.0,-999.0,98,-99.99,,,0.08,0,weatherlink.com 1.10,2013-01-13 05:00:00,
2013-01-13 00:15:00,38.3,38.0,30.10,SW,217,0.0,-999.0,98,-99.99,,,0.00,0,weatherlink.com 1.10,2013-01-13 05:15:00,
2013-01-13 00:30:00,38.1,38.0,30.08,SW,217,0.0,-999.0,98,-99.99,,,0.00,0,weatherlink.com 1.10,2013-01-13 05:30:00,
2013-01-13 00:45:00,37.8,37.0,30.08,SW,217,0.0,-999.0,98,-99.99,,,0.00,0,weatherlink.com 1.10,2013-01-13 05:45:00,
2013-01-13 01:00:00,38.0,38.0,30.09,SW,217,0.0,-999.0,98,-99.99,,,0.00,0,weatherlink.com 1.10,2013-01-13 06:00:00,
2013-01-13 01:15:00,38.0,38.0,30.09,SW,217,0.0,-999.0,98,-99.99,,,0.00,0,weatherlink.com 1.10,2013-01-13 06:15:00,
2013-01-13 01:30:00,37.9,37.0,30.09,SW,217,0.0,-999.0,98,-99.99,,,0.00,0,weatherlink.com 1.10,2013-01-13 06:30:00,
2013-01-13 01:45:00,37.9,37.0,30.09,SW,217,0.0,-999.0,98,-99.99,,,0.00,0,weatherlink.com 1.10,2013-01-13 06:45:00,
2013-01-13 02:00:00,38.0,38.0,30.09,SW,217,4.0,-999.0,98,-99.99,,,0.00,0,weatherlink.com 1.10,2013-01-13 07:00:00,
2013-01-13 02:15:00,38.1,38.0,30.09,SW,217,0.0,-999.0,98,-99.99,,,0.00,0,weatherlink.com 1.10,2013-01-13 07:15:00,
2013-01-13 02:30:00,38.3,38.0,30.11,SW,218,0.0,-999.0,98,-99.99,,,0.00,0,weatherlink.com 1.10,2013-01-13 07:30:00,
2013-01-13 02:45:00,38.2,38.0,30.10,SW,218,0.0,-999.0,98,-99.99,,,0.00,0,weatherlink.com 1.10,2013-01-13 07:45:00,
2013-01-13 03:00:00,38.2,38.0,30.10,SW,218,0.0,-999.0,98,-99.99,,,0.00,0,weatherlink.com 1.10,2013-01-13 08:00:00,
2013-01-13 03:15:00,38.2,38.0,30.10,SW,218,0.0,-999.0,98,-99.99,,,0.00,0,weatherlink.com 1.10,2013-01-13 08:15:00,
2013-01-13 03:30:00,38.2,38.0,30.10,SW,218,0.0,-999.0,98,-99.99,,,0.00,0,weatherlink.com 1.10,2013-01-13 08:30:00,
2013-01-13 03:45:00,38.2,38.0,30.10,SW,218,0.0,-999.0,98,-99.99,,,0.00,0,weatherlink.com 1.10,2013-01-13 08:45:00,
2013-01-13 04:00:00,38.1,38.0,30.11,SW,218,0.0,-999.0,98,-99.99,,,0.00,0,weatherlink.com 1.10,2013-01-13 09:00:00,
2013-01-13 04:15:00,38.1,38.0,30.10,SW,218,0.0,-999.0,98,-99.99,,,0.00,0,weatherlink.com 1.10,2013-01-13 09:15:00,
2013-01-13 04:30:00,38.0,38.0,30.10,SW,218,0.0,-999.0,98,-99.99,,,0.00,0,weatherlink.com 1.10,2013-01-13 09:30:00,
2013-01-13 04:45:00,37.8,37.0,30.09,SW,218,0.0,-999.0,98,-99.99,,,0.00,0,weatherlink.com 1.10,2013-01-13 09:45:00,
2013-01-13 05:00:00,37.9,37.0,30.10,SW,218,0.0,-999.0,98,-99.99,,,0.00,0,weatherlink.com 1.10,2013-01-13 10:00:00,
2013-01-13 05:15:00,37.9,37.0,30.09,SW,218,0.0,-999.0,98,-99.99,,,0.00,0,weatherlink.com 1.10,2013-01-13 10:15:00,
2013-01-13 05:30:00,37.8,37.0,30.09,SW,218,0.0,-999.0,98,-99.99,,,0.00,0,weatherlink.com 1.10,2013-01-13 10:30:00,
2013-01-13 05:45:00,37.1,37.0,30.09,SW,218,0.0,-999.0,98,-99.99,,,0.00,0,weatherlink.com 1.10,2013-01-13 10:45:00,
2013-01-13 06:00:00,37.0,37.0,30.09,SW,218,0.0,-999.0,98,-99.99,,,0.00,0,weatherlink.com 1.10,2013-01-13 11:00:00,
2013-01-13 06:15:00,37.3,37.0,30.09,SW,218,4.0,-999.0,98,-99.99,,,0.00,0,weatherlink.com 1.10,2013-01-13 11:15:00,
2013-01-13 06:30:00,37.0,37.0,30.09,SW,218,5.0,-999.0,98,-99.99,,,0.00,0,weatherlink.com 1.10,2013-01-13 11:30:00,
2013-01-13 06:45:00,37.1,37.0,30.09,SW,218,0.0,-999.0,98,-99.99,,,0.00,0,weatherlink.com 1.10,2013-01-13 11:45:00,
2013-01-13 07:00:00,37.0,37.0,30.11,SW,218,0.0,-999.0,98,-99.99,,,0.00,0,weatherlink.com 1.10,2013-01-13 12:00:00,
2013-01-13 07:15:00,36.8,36.0,30.11,SW,219,0.0,-999.0,98,-99.99,,,0.00,0,weatherlink.com 1.10,2013-01-13 12:15:00,
2013-01-13 07:30:00,36.6,36.0,30.11,SW,219,0.0,-999.0,98,-99.99,,,0.00,11,weatherlink.com 1.10,2013-01-13 12:30:00,
2013-01-13 07:45:00,36.5,36.0,30.11,SW,219,0.0,-999.0,98,-99.99,,,0.00,16,weatherlink.com 1.10,2013-01-13 12:45:00,
2013-01-13 08:00:00,36.4,36.0,30.11,SW,218,0.0,-999.0,98,-99.99,,,0.00,19,weatherlink.com 1.10,2013-01-13 13:00:00,
2013-01-13 08:15:00,36.4,36.0,30.09,SW,219,0.0,-999.0,98,-99.99,,,0.00,21,weatherlink.com 1.10,2013-01-13 13:15:00,
2013-01-13 08:30:00,36.4,36.0,30.10,SW,219,0.0,-999.0,98,-99.99,,,0.00,35,weatherlink.com 1.10,2013-01-13 13:30:00,
2013-01-13 08:45:00,36.6,36.0,30.12,SW,219,0.0,-999.0,98,-99.99,,,0.00,63,weatherlink.com 1.10,2013-01-13 13:45:00,
2013-01-13 09:00:00,36.7,36.0,30.13,SW,219,0.0,-999.0,98,-99.99,,,0.00,79,weatherlink.com 1.10,2013-01-13 14:00:00,
2013-01-13 09:15:00,36.7,36.0,30.13,SW,218,0.0,-999.0,98,-99.99,,,0.00,98,weatherlink.com 1.10,2013-01-13 14:15:00,
2013-01-13 09:30:00,36.9,36.0,30.13,SW,218,2.0,-999.0,98,-99.99,,,0.00,67,weatherlink.com 1.10,2013-01-13 14:30:00,
2013-01-13 09:45:00,36.9,36.0,30.11,SSW,206,0.0,-999.0,98,-99.99,,,0.00,67,weatherlink.com 1.10,2013-01-13 14:45:00,
2013-01-13 10:00:00,36.9,36.0,30.12,South,188,4.0,-999.0,98,-99.99,,,0.00,113,weatherlink.com 1.10,2013-01-13 15:00:00,
2013-01-13 10:15:00,37.1,37.0,30.13,SSW,200,1.0,-999.0,98,-99.99,,,0.00,114,weatherlink.com 1.10,2013-01-13 15:15:00,
2013-01-13 10:30:00,37.1,37.0,30.11,SW,216,2.0,-999.0,98,-99.99,,,0.00,105,weatherlink.com 1.10,2013-01-13 15:30:00,
2013-01-13 10:45:00,37.2,37.0,30.11,SW,218,0.0,-999.0,98,-99.99,,,0.00,116,weatherlink.com 1.10,2013-01-13 15:45:00,
2013-01-13 11:00:00,37.5,37.0,30.10,SW,218,0.0,-999.0,98,-99.99,,,0.00,163,weatherlink.com 1.10,2013-01-13 16:00:00,
2013-01-13 11:15:00,37.5,37.0,30.10,SSW,207,6.0,-999.0,98,-99.99,,,0.00,155,weatherlink.com 1.10,2013-01-13 16:15:00,
2013-01-13 11:30:00,37.6,37.0,30.09,SSW,200,0.0,-999.0,98,-99.99,,,0.00,102,weatherlink.com 1.10,2013-01-13 16:30:00,
2013-01-13 11:48:00,37.6,37.0,30.08,South,173,7.0,-999.0,98,-99.99,,,0.00,128,weatherlink.com 1.10,2013-01-13 16:48:00,
2013-01-13 12:00:00,37.7,37.0,30.08,SSE,160,0.0,-999.0,98,-99.99,,,0.00,98,weatherlink.com 1.10,2013-01-13 17:00:00,
2013-01-13 12:15:00,37.9,37.0,30.08,SSE,161,0.0,-999.0,98,-99.99,,,0.00,148,weatherlink.com 1.10,2013-01-13 17:15:00,
2013-01-13 12:30:00,38.1,38.0,30.06,SSE,161,0.0,-999.0,98,-99.99,,,0.00,163,weatherlink.com 1.10,2013-01-13 17:30:00,
2013-01-13 12:45:00,38.0,38.0,30.05,SSE,161,0.0,-999.0,98,-99.99,,,0.00,141,weatherlink.com 1.10,2013-01-13 17:45:00,
2013-01-13 13:00:00,38.0,38.0,30.04,SSE,154,0.0,-999.0,98,-99.99,,,0.00,125,weatherlink.com 1.10,2013-01-13 18:00:00,
2013-01-13 13:15:00,38.3,38.0,30.04,SSE,158,0.0,-999.0,98,-99.99,,,0.00,135,weatherlink.com 1.10,2013-01-13 18:15:00,
2013-01-13 13:30:00,38.4,38.0,30.04,SW,221,1.0,-999.0,98,-99.99,,,0.00,60,weatherlink.com 1.10,2013-01-13 18:30:00,
2013-01-13 13:45:00,38.4,38.0,30.04,SW,221,3.0,-999.0,98,-99.99,,,0.00,142,weatherlink.com 1.10,2013-01-13 18:45:00,
2013-01-13 14:00:00,38.5,38.0,30.03,SW,223,0.0,-999.0,98,-99.99,,,0.00,67,weatherlink.com 1.10,2013-01-13 19:00:00,
2013-01-13 14:15:00,38.6,38.0,30.03,SSW,196,5.0,-999.0,98,-99.99,,,0.00,86,weatherlink.com 1.10,2013-01-13 19:15:00,
2013-01-13 14:30:00,38.6,38.0,30.04,SSW,194,1.0,-999.0,98,-99.99,,,0.00,37,weatherlink.com 1.10,2013-01-13 19:30:00,
2013-01-13 14:45:00,38.4,38.0,30.03,SSE,156,4.0,-999.0,98,-99.99,,,0.00,18,weatherlink.com 1.10,2013-01-13 19:45:00,
2013-01-13 15:00:00,38.3,38.0,30.03,South,172,5.0,-999.0,98,-99.99,,,0.00,19,weatherlink.com 1.10,2013-01-13 20:00:00,
2013-01-13 15:15:00,38.2,38.0,30.02,SSE,156,4.0,-999.0,98,-99.99,,,0.00,32,weatherlink.com 1.10,2013-01-13 20:15:00,
2013-01-13 15:30:00,38.0,38.0,30.02,SSE,168,4.0,-999.0,98,-99.99,,,0.00,44,weatherlink.com 1.10,2013-01-13 20:30:00,
2013-01-13 15:45:00,38.0,38.0,30.01,SSE,161,5.0,-999.0,99,-99.99,,,0.00,47,weatherlink.com 1.10,2013-01-13 20:45:00,
2013-01-13 16:00:00,38.0,38.0,30.00,SSE,158,6.0,-999.0,99,-99.99,,,0.00,21,weatherlink.com 1.10,2013-01-13 21:00:00,
2013-01-13 16:15:00,38.1,38.0,30.00,SSE,160,1.0,-999.0,99,-99.99,,,0.00,0,weatherlink.com 1.10,2013-01-13 21:15:00,
2013-01-13 16:30:00,38.2,38.0,29.99,SSE,159,0.0,-999.0,99,-99.99,,,0.00,0,weatherlink.com 1.10,2013-01-13 21:30:00,
2013-01-13 16:45:00,38.1,38.0,29.99,SSE,159,0.0,-999.0,99,-99.99,,,0.00,0,weatherlink.com 1.10,2013-01-13 21:45:00,
2013-01-13 17:00:00,38.2,38.0,29.98,SSE,159,4.0,-999.0,99,-99.99,,,0.00,0,weatherlink.com 1.10,2013-01-13 22:00:00,
2013-01-13 17:15:00,38.8,39.0,29.98,SSE,159,5.0,-999.0,99,-99.99,,,0.00,0,weatherlink.com 1.10,2013-01-13 22:15:00,
2013-01-13 17:30:00,38.8,39.0,29.99,SSE,161,0.0,-999.0,99,-99.99,,,0.00,0,weatherlink.com 1.10,2013-01-13 22:30:00,
2013-01-13 17:45:00,39.0,39.0,29.98,SSE,153,0.0,-999.0,98,-99.99,,,0.00,0,weatherlink.com 1.10,2013-01-13 22:45:00,
2013-01-13 18:00:00,39.3,39.0,29.98,SW,216,0.0,-999.0,99,-99.99,,,0.00,0,weatherlink.com 1.10,2013-01-13 23:00:00,
2013-01-13 18:15:00,39.7,39.0,29.99,SW,221,0.0,-999.0,98,-99.99,,,0.00,0,weatherlink.com 1.10,2013-01-13 23:15:00,
2013-01-13 18:30:00,39.5,39.0,29.99,SW,222,0.0,-999.0,98,-99.99,,,0.00,0,weatherlink.com 1.10,2013-01-13 23:30:00,
2013-01-13 18:45:00,39.4,39.0,29.99,SW,223,0.0,-999.0,99,-99.99,,,0.00,0,weatherlink.com 1.10,2013-01-13 23:45:00,
2013-01-13 19:00:00,39.7,39.0,29.98,SW,223,0.0,-999.0,98,-99.99,,,0.00,0,weatherlink.com 1.10,2013-01-14 00:00:00,
2013-01-13 19:15:00,39.8,40.0,29.98,SW,223,0.0,-999.0,99,-99.99,,,0.00,0,weatherlink.com 1.10,2013-01-14 00:15:00,
2013-01-13 19:30:00,40.0,40.0,29.98,SW,223,0.0,-999.0,99,-99.99,,,0.00,0,weatherlink.com 1.10,2013-01-14 00:30:00,
2013-01-13 19:45:00,40.2,40.0,29.97,SW,221,2.0,-999.0,98,-99.99,,,0.00,0,weatherlink.com 1.10,2013-01-14 00:45:00,
2013-01-13 20:00:00,39.7,39.0,29.96,SSW,196,2.0,-999.0,98,-99.99,,,0.00,0,weatherlink.com 1.10,2013-01-14 01:00:00,
2013-01-13 20:15:00,39.9,40.0,29.96,SSE,159,8.0,-999.0,99,-99.99,,,0.00,0,weatherlink.com 1.10,2013-01-14 01:15:00,
2013-01-13 20:30:00,39.9,40.0,29.96,SSE,165,2.0,-999.0,99,-99.99,,,0.00,0,weatherlink.com 1.10,2013-01-14 01:30:00,
2013-01-13 20:45:00,40.2,40.0,29.97,South,184,0.0,-999.0,99,-99.99,,,0.00,0,weatherlink.com 1.10,2013-01-14 01:45:00,
2013-01-13 21:00:00,39.5,39.0,29.96,South,181,0.0,-999.0,99,-99.99,,,0.00,0,weatherlink.com 1.10,2013-01-14 02:00:00,
2013-01-13 21:15:00,39.3,39.0,29.95,South,180,2.0,-999.0,99,-99.99,,,0.00,0,weatherlink.com 1.10,2013-01-14 02:15:00,
2013-01-13 21:30:00,40.1,40.0,29.95,South,178,3.0,-999.0,99,-99.99,,,0.00,0,weatherlink.com 1.10,2013-01-14 02:30:00,
2013-01-13 21:45:00,40.4,40.0,29.94,South,176,0.0,-999.0,99,-99.99,,,0.00,0,weatherlink.com 1.10,2013-01-14 02:45:00,
2013-01-13 22:00:00,40.7,41.0,29.94,South,176,0.0,-999.0,99,-99.99,,,0.00,0,weatherlink.com 1.10,2013-01-14 03:00:00,
2013-01-13 22:15:00,41.0,41.0,29.93,South,184,2.0,-999.0,99,-99.99,,,0.00,0,weatherlink.com 1.10,2013-01-14 03:15:00,
2013-01-13 22:30:00,40.8,41.0,29.93,SSE,168,0.0,-999.0,99,-99.99,,,0.00,0,weatherlink.com 1.10,2013-01-14 03:30:00,
2013-01-13 22:45:00,41.3,41.0,29.92,South,186,4.0,-999.0,99,-99.99,,,0.00,0,weatherlink.com 1.10,2013-01-14 03:45:00,
2013-01-13 23:00:00,41.7,42.0,29.93,SSW,213,6.0,-999.0,99,-99.99,,,0.00,0,weatherlink.com 1.10,2013-01-14 04:00:00,
2013-01-13 23:15:00,41.8,42.0,29.94,SSW,207,0.0,-999.0,99,-99.99,,,0.00,0,weatherlink.com 1.10,2013-01-14 04:15:00,
2013-01-13 23:30:00,42.3,42.0,29.93,South,182,2.0,-999.0,99,-99.99,,,0.00,0,weatherlink.com 1.10,2013-01-14 04:30:00,
2013-01-13 23:45:00,42.4,42.0,29.92,SSE,161,4.0,-999.0,99,-99.99,,,0.00,0,weatherlink.com 1.10,2013-01-14 04:45:00,